FW8003 Weather Reports


Display with metric or nautical units.
time (UTC)temp
F
wind
direction
speed
MPH
gust
MPH
rain 1hr
in
rain 24hr
in
rain mn
in
humidity
%
barometer
mb
20260505153038 76 152 2.0 11.0 0.00 0.00 0.00 85 1008.1
20260505152515 76 168 3.0 8.0 0.00 0.00 0.00 86 1008.0
20260505152021 76 0 1.0 8.0 0.00 0.00 0.00 86 1007.9
20260505151537 75 0 2.0 8.0 0.00 0.00 0.00 86 1008.1
20260505151021 75 243 2.0 5.0 0.00 0.00 0.00 86 1008.1
20260505150520 75 231 1.0 8.0 0.00 0.00 0.00 87 1008.1
20260505140518 73 234 1.0 7.0 0.00 0.00 0.00 89 1008.0
20260505125021 71 0 0.0 8.0 0.00 0.00 0.00 91 1007.9
20260505124550 71 180 1.0 8.0 0.00 0.00 0.00 91 1007.6
20260505124018 71 142 1.0 8.0 0.00 0.00 0.00 91 1007.3
20260505123518 71 182 2.0 8.0 0.00 0.00 0.00 91 1007.1
20260505123049 71 144 3.0 8.0 0.00 0.00 0.00 91 1007.0
20260505122517 71 0 3.0 7.0 0.00 0.00 0.00 91 1007.1
20260505122017 71 194 1.0 6.0 0.00 0.00 0.00 91 1007.3
20260505121604 71 163 0.0 6.0 0.00 0.00 0.00 91 1007.5
20260505121021 71 0 1.0 6.0 0.00 0.00 0.00 91 1007.4
20260505120518 71 0 0.0 6.0 0.00 0.00 0.00 91 1007.4
20260505120035 71 132 1.0 7.0 0.00 0.00 0.00 91 1007.3
20260505115517 71 100 2.0 7.0 0.00 0.00 0.00 91 1007.3
20260505115017 71 173 0.0 4.0 0.00 0.00 0.00 91 1007.2
20260505114534 70 192 0.0 6.0 0.00 0.00 0.00 91 1007.2
20260505114017 71 191 1.0 8.0 0.00 0.00 0.00 91 1007.0
20260505113517 70 181 2.0 8.0 0.00 0.00 0.00 90 1006.9
20260505113036 70 169 2.0 6.0 0.00 0.00 0.00 90 1007.0
20260505112517 70 0 1.0 8.0 0.00 0.00 0.00 90 1007.3
20260505112018 70 209 1.0 8.0 0.00 0.00 0.00 90 1007.3
20260505111539 70 150 1.0 6.0 0.00 0.00 0.00 90 1007.1
20260505111018 70 87 0.0 6.0 0.00 0.00 0.00 90 1007.1
20260505110517 70 128 1.0 8.0 0.00 0.00 0.00 90 1007.0
20260505102015 70 170 1.0 6.0 0.00 0.00 0.00 90 1007.2
20260505101541 70 159 2.0 6.0 0.00 0.00 0.00 90 1007.1
20260505101015 70 133 1.0 6.0 0.00 0.00 0.00 90 1007.2
20260505100518 70 147 1.0 7.0 0.00 0.00 0.00 90 1007.3
20260505100043 70 120 2.0 7.0 0.00 0.00 0.00 90 1007.3
20260505095520 70 160 2.0 6.0 0.00 0.00 0.00 90 1007.3
20260505095019 70 173 1.0 5.0 0.00 0.00 0.00 90 1007.3
20260505094532 70 118 1.0 5.0 0.00 0.00 0.00 90 1007.4
20260505094016 70 173 2.0 5.0 0.00 0.00 0.00 90 1007.2
20260505093518 70 202 2.0 5.0 0.00 0.00 0.00 90 1007.1
20260505093034 70 183 2.0 5.0 0.00 0.00 0.00 89 1007.3
20260505092515 70 163 0.0 5.0 0.00 0.00 0.00 89 1007.3
20260505092018 70 159 2.0 5.0 0.00 0.00 0.00 89 1007.4
20260505091537 70 0 1.0 5.0 0.00 0.00 0.00 89 1007.6
20260505091021 70 173 0.0 4.0 0.00 0.00 0.00 89 1007.6
20260505090515 70 0 0.0 5.0 0.00 0.00 0.00 89 1007.7
20260505090032 70 121 0.0 5.0 0.00 0.00 0.00 89 1007.6
20260505085517 70 152 1.0 5.0 0.00 0.00 0.00 88 1007.7
20260505085017 70 0 1.0 4.0 0.00 0.00 0.00 89 1007.7
20260505084536 70 157 1.0 4.0 0.00 0.00 0.00 88 1007.6
20260505084018 70 166 1.0 7.0 0.00 0.00 0.00 88 1007.8
20260505083519 70 0 0.0 7.0 0.00 0.00 0.00 88 1007.6
20260505083046 70 162 2.0 8.0 0.00 0.00 0.00 88 1007.7
20260505082517 70 92 2.0 8.0 0.00 0.00 0.00 88 1007.7
20260505082018 70 175 0.0 6.0 0.00 0.00 0.00 88 1007.8
20260505081540 70 167 2.0 6.0 0.00 0.00 0.00 88 1007.9
20260505081018 70 196 1.0 7.0 0.00 0.00 0.00 88 1007.8
20260505080515 70 118 1.0 7.0 0.00 0.00 0.00 87 1007.8
20260505080045 70 0 1.0 7.0 0.00 0.00 0.00 87 1008.0
20260505075515 70 0 1.0 6.0 0.00 0.00 0.00 87 1008.1
20260505075016 70 0 0.0 6.0 0.00 0.00 0.00 87 1008.1
20260505074534 70 190 0.0 5.0 0.00 0.00 0.00 87 1008.1
20260505074022 70 163 1.0 4.0 0.00 0.00 0.00 87 1008.0
20260505073617 70 165 1.0 5.0 0.00 0.00 0.00 87 1008.0
20260505073038 70 117 1.0 5.0 0.00 0.00 0.00 87 1008.1
20260505072518 70 191 1.0 5.0 0.00 0.00 0.00 87 1008.1
20260505072017 70 203 1.0 6.0 0.00 0.00 0.00 87 1008.2
20260505071541 70 188 1.0 6.0 0.00 0.00 0.00 87 1008.4
20260505071022 70 203 1.0 5.0 0.00 0.00 0.00 86 1008.5
20260505070518 70 0 0.0 5.0 0.00 0.00 0.00 86 1008.4
20260505070037 70 173 0.0 5.0 0.00 0.00 0.00 86 1008.4
20260505065517 70 100 2.0 9.0 0.00 0.00 0.00 86 1008.4
20260505065020 70 182 0.0 9.0 0.00 0.00 0.00 86 1008.5
20260505064534 70 146 1.0 4.0 0.00 0.00 0.00 86 1008.6
20260505064019 70 132 1.0 4.0 0.00 0.00 0.00 86 1008.6
20260505063515 70 0 1.0 5.0 0.00 0.00 0.00 86 1008.5
20260505063044 70 140 2.0 6.0 0.00 0.00 0.00 85 1008.6
20260505062519 70 175 2.0 6.0 0.00 0.00 0.00 85 1008.7
20260505062021 70 214 1.0 4.0 0.00 0.00 0.00 85 1008.9
20260505061539 70 166 1.0 4.0 0.00 0.00 0.00 85 1009.0
20260505061022 70 115 1.0 4.0 0.00 0.00 0.00 85 1008.9
20260505060518 70 202 1.0 5.0 0.00 0.00 0.00 85 1009.0
20260505060035 70 177 1.0 5.0 0.00 0.00 0.00 84 1009.0
20260505055515 70 147 1.0 5.0 0.00 0.00 0.00 84 1008.9
20260505055016 70 171 1.0 6.0 0.00 0.00 0.00 84 1008.8
20260505054549 70 180 2.0 6.0 0.00 0.00 0.00 84 1008.9
20260505054018 70 161 2.0 6.0 0.00 0.00 0.00 84 1008.9
20260505053519 70 146 2.0 7.0 0.00 0.00 0.00 83 1009.0
20260505053041 70 176 2.0 7.0 0.00 0.00 0.00 83 1009.0
20260505052515 70 165 2.0 7.0 0.00 0.00 0.00 83 1009.1
20260505052015 71 190 1.0 7.0 0.00 0.00 0.00 83 1009.1
20260505051540 71 184 2.0 7.0 0.00 0.00 0.00 82 1009.2
20260505051019 71 186 1.0 7.0 0.00 0.00 0.00 82 1009.2
20260505050525 71 173 2.0 6.0 0.00 0.00 0.00 82 1009.3
20260505041545 72 178 3.0 11.0 0.00 0.00 0.00 80 1009.2
20260505041017 72 221 2.0 11.0 0.00 0.00 0.00 80 1009.2
20260505040516 72 168 4.0 11.0 0.00 0.00 0.00 80 1009.1
20260505040041 72 161 4.0 11.0 0.00 0.00 0.00 80 1009.2
20260505035519 72 196 3.0 11.0 0.00 0.00 0.00 80 1009.3
20260505035017 72 209 1.0 6.0 0.00 0.00 0.00 80 1009.4
20260505034538 72 188 1.0 7.0 0.00 0.00 0.00 79 1009.5
20260505034018 72 172 2.0 10.0 0.00 0.00 0.00 79 1009.4
20260505033518 72 120 3.0 13.0 0.00 0.00 0.00 79 1009.3
20260505033036 72 182 3.0 13.0 0.00 0.00 0.00 78 1009.3
20260505032522 72 88 3.0 13.0 0.00 0.00 0.00 78 1009.5
20260505032014 73 171 2.0 8.0 0.00 0.00 0.00 78 1009.5
20260505031540 73 0 1.0 7.0 0.00 0.00 0.00 78 1009.5
20260505031018 73 192 2.0 9.0 0.00 0.00 0.00 77 1009.5
20260505030516 73 142 2.0 9.0 0.00 0.00 0.00 77 1009.4
20260505030051 73 192 2.0 10.0 0.00 0.00 0.00 77 1009.5
20260505025516 73 189 2.0 10.0 0.00 0.00 0.00 77 1009.5
20260505025016 74 170 3.0 11.0 0.00 0.00 0.00 77 1009.4
20260505024531 74 184 3.0 11.0 0.00 0.00 0.00 76 1009.3
20260505024018 74 140 1.0 7.0 0.00 0.00 0.00 77 1009.3
20260505023515 74 196 3.0 10.0 0.00 0.00 0.00 76 1009.1
20260505023037 74 187 3.0 10.0 0.00 0.00 0.00 77 1009.2
20260505022516 74 175 2.0 6.0 0.00 0.00 0.00 77 1009.2
20260505022018 74 0 1.0 8.0 0.00 0.00 0.00 77 1009.2
20260505021549 74 200 2.0 8.0 0.00 0.00 0.00 77 1009.3
20260505021018 73 167 3.0 7.0 0.00 0.00 0.00 77 1009.3
20260505020518 73 182 2.0 7.0 0.00 0.00 0.00 77 1009.3
20260505020049 73 157 1.0 7.0 0.00 0.00 0.00 77 1009.2
20260505015516 73 182 1.0 5.0 0.00 0.00 0.00 77 1009.1
20260505015016 73 0 0.0 3.0 0.00 0.00 0.00 77 1009.2
20260505014536 73 0 1.0 5.0 0.00 0.00 0.00 77 1009.1
20260505014019 74 0 0.0 5.0 0.00 0.00 0.00 76 1009.1
20260505013515 74 0 0.0 5.0 0.00 0.00 0.00 76 1009.1
20260505013032 74 146 1.0 5.0 0.00 0.00 0.00 76 1008.8
20260505012515 74 209 1.0 3.0 0.00 0.00 0.00 75 1008.8
20260505012022 75 178 1.0 5.0 0.00 0.00 0.00 75 1008.8
20260505011538 75 183 1.0 5.0 0.00 0.00 0.00 75 1008.8
20260505011017 75 167 1.0 8.0 0.00 0.00 0.00 74 1008.8
20260505010515 75 134 0.0 8.0 0.00 0.00 0.00 74 1009.0
20260505010045 76 211 3.0 8.0 0.00 0.00 0.00 73 1008.8
20260505005515 76 181 2.0 9.0 0.00 0.00 0.00 73 1008.8
20260505005021 76 168 2.0 9.0 0.00 0.00 0.00 73 1008.8
20260505004537 76 180 3.0 9.0 0.00 0.00 0.00 73 1008.9
20260505004014 76 159 2.0 9.0 0.00 0.00 0.00 73 1009.0
20260505003515 76 143 1.0 8.0 0.00 0.00 0.00 73 1008.9
20260505003045 76 171 2.0 8.0 0.00 0.00 0.00 72 1008.8
20260505002519 76 142 2.0 7.0 0.00 0.00 0.00 72 1008.8
20260505002017 77 135 1.0 7.0 0.00 0.00 0.00 72 1008.9
20260505001535 77 286 1.0 7.0 0.00 0.00 0.00 72 1009.0
20260505001018 77 199 3.0 9.0 0.00 0.00 0.00 72 1008.9
20260505000515 77 192 3.0 9.0 0.00 0.00 0.00 71 1008.9
20260505000039 77 197 2.0 11.0 0.00 0.00 0.00 71 1008.9
20260504235517 78 205 1.0 11.0 0.00 0.00 0.00 71 1009.0
20260504235017 78 88 3.0 11.0 0.00 0.00 0.00 70 1009.0
20260504234539 78 0 1.0 5.0 0.00 0.00 0.00 70 1008.9
20260504234016 78 191 2.0 8.0 0.00 0.00 0.00 70 1009.0
20260504233516 78 230 2.0 8.0 0.00 0.00 0.00 70 1009.1
20260504233045 78 254 2.0 8.0 0.00 0.00 0.00 69 1009.0
20260504232518 78 82 2.0 9.0 0.00 0.00 0.00 69 1009.0
20260504232015 79 178 3.0 9.0 0.00 0.00 0.00 68 1009.0
20260504231537 79 234 2.0 7.0 0.00 0.00 0.00 68 1009.1
20260504231016 79 151 2.0 10.0 0.00 0.00 0.00 68 1009.2
20260504230516 79 192 4.0 10.0 0.00 0.00 0.00 67 1009.3
20260504230043 79 164 2.0 9.0 0.00 0.00 0.00 68 1009.3
20260504225517 80 217 1.0 7.0 0.00 0.00 0.00 68 1009.3
20260504225017 80 197 1.0 7.0 0.00 0.00 0.00 68 1009.3
20260504224536 80 154 2.0 7.0 0.00 0.00 0.00 67 1009.3
20260504224017 80 117 1.0 5.0 0.00 0.00 0.00 68 1009.3
20260504223517 80 159 1.0 6.0 0.00 0.00 0.00 67 1009.4
20260504223034 80 204 0.0 9.0 0.00 0.00 0.00 68 1009.6
20260504222517 79 224 3.0 9.0 0.00 0.00 0.00 66 1009.6
20260504222018 79 161 3.0 11.0 0.00 0.00 0.00 66 1009.5
20260504221538 79 168 3.0 11.0 0.00 0.00 0.00 66 1009.6
20260504221017 80 128 4.0 11.0 0.00 0.00 0.00 66 1009.6
20260504220516 80 205 2.0 7.0 0.00 0.00 0.00 65 1009.8
20260504220038 80 180 1.0 7.0 0.00 0.00 0.00 66 1009.9
20260504215520 80 178 1.0 7.0 0.00 0.00 0.00 65 1009.8
20260504215016 81 143 2.0 9.0 0.00 0.00 0.00 64 1009.8
20260504214542 81 146 2.0 9.0 0.00 0.00 0.00 63 1009.9
20260504214019 81 193 2.0 9.0 0.00 0.00 0.00 65 1010.0
20260504213518 81 250 1.0 6.0 0.00 0.00 0.00 63 1010.2
20260504213041 82 223 2.0 6.0 0.00 0.00 0.00 63 1010.2
20260504212516 82 218 1.0 9.0 0.00 0.00 0.00 64 1010.2
20260504212019 82 239 1.0 9.0 0.00 0.00 0.00 63 1010.3
20260504211534 81 91 1.0 6.0 0.00 0.00 0.00 63 1010.4
20260504211019 81 192 2.0 6.0 0.00 0.00 0.00 64 1010.6
20260504210522 82 0 0.0 7.0 0.00 0.00 0.00 66 1010.6
20260504210050 81 188 1.0 7.0 0.00 0.00 0.00 64 1010.7
20260504205518 81 163 2.0 8.0 0.00 0.00 0.00 63 1010.7
20260504205019 81 190 1.0 12.0 0.00 0.00 0.00 63 1010.7
20260504204543 81 216 4.0 12.0 0.00 0.00 0.00 62 1010.7
20260504204019 81 185 1.0 7.0 0.00 0.00 0.00 65 1011.0
20260504203516 80 244 1.0 7.0 0.00 0.00 0.00 65 1011.1
20260504203039 80 92 1.0 8.0 0.00 0.00 0.00 65 1011.3
20260504202519 79 223 2.0 9.0 0.00 0.00 0.00 66 1011.2
20260504202018 79 194 2.0 9.0 0.00 0.00 0.00 65 1011.4
20260504201536 79 216 3.0 9.0 0.00 0.00 0.00 65 1011.6
20260504201018 79 203 1.0 4.0 0.00 0.00 0.00 66 1011.6
20260504200518 79 224 1.0 7.0 0.00 0.00 0.00 66 1011.7
20260504200050 79 229 1.0 9.0 0.00 0.00 0.00 65 1011.7
20260504195515 80 212 2.0 11.0 0.00 0.00 0.00 65 1011.8
20260504195019 79 196 5.0 11.0 0.00 0.00 0.00 63 1011.9
20260504194538 80 179 3.0 8.0 0.00 0.00 0.00 64 1012.1
20260504194018 80 153 2.0 7.0 0.00 0.00 0.00 63 1012.1
20260504193521 80 134 2.0 9.0 0.00 0.00 0.00 62 1012.1
20260504193039 80 96 1.0 9.0 0.00 0.00 0.00 63 1012.2
20260504192518 80 135 4.0 9.0 0.00 0.00 0.00 61 1012.3
20260504192019 80 200 2.0 9.0 0.00 0.00 0.00 63 1012.3
20260504191537 80 129 4.0 9.0 0.00 0.00 0.00 63 1012.3
20260504191020 80 195 3.0 9.0 0.00 0.00 0.00 64 1012.2
20260504190522 79 116 2.0 8.0 0.00 0.00 0.00 63 1012.4
20260504190032 79 201 2.0 9.0 0.00 0.00 0.00 67 1012.7
20260504185518 79 217 3.0 9.0 0.00 0.00 0.00 65 1012.8
20260504185022 79 76 2.0 10.0 0.00 0.00 0.00 64 1012.8
20260504184539 79 245 2.0 10.0 0.00 0.00 0.00 66 1012.8
20260504184018 78 81 2.0 9.0 0.00 0.00 0.00 64 1012.8
20260504183520 78 113 2.0 10.0 0.00 0.00 0.00 66 1012.9
20260504183038 78 160 2.0 11.0 0.00 0.00 0.00 65 1012.9
20260504182516 78 209 3.0 12.0 0.00 0.00 0.00 65 1012.9
20260504182021 79 180 5.0 12.0 0.00 0.00 0.00 63 1013.0
20260504181538 79 229 3.0 10.0 0.00 0.00 0.00 64 1013.0
20260504181017 79 242 3.0 10.0 0.00 0.00 0.00 63 1013.1
20260504180516 79 145 4.0 11.0 0.00 0.00 0.00 65 1013.1
20260504180037 78 138 1.0 12.0 0.00 0.00 0.00 66 1013.1
20260504175518 79 227 3.0 12.0 0.00 0.00 0.00 65 1013.2
20260504175016 78 234 2.0 7.0 0.00 0.00 0.00 65 1013.2
20260504174535 78 171 2.0 11.0 0.00 0.00 0.00 63 1013.2
20260504174021 78 168 4.0 11.0 0.00 0.00 0.00 63 1013.3
20260504173517 78 163 1.0 6.0 0.00 0.00 0.00 65 1013.4
20260504173034 77 234 2.0 7.0 0.00 0.00 0.00 66 1013.5
20260504172519 77 214 3.0 9.0 0.00 0.00 0.00 67 1013.4
20260504172017 77 157 3.0 9.0 0.00 0.00 0.00 65 1013.6
20260504171535 77 97 1.0 8.0 0.00 0.00 0.00 68 1013.8
20260504171017 77 162 3.0 8.0 0.00 0.00 0.00 65 1013.8
20260504170517 77 149 2.0 6.0 0.00 0.00 0.00 67 1013.9